Location: Berlin
(52.5170°N, 13.3889°E)
Time: 22:37:39
(UTC+02:00)

LES 1 - Pass Details

Date: 19 June 2025
Orbit: 2779 x 2808 km, 32.1° (Epoch: 12 July)

Event Time Altitude Azimuth Distance (km) Brightness Sun altitude
Rises 23:19:27 0° 228° (SW) 6,567 12.1 -10.4°
Reaches altitude 10° 23:24:20 10° 218° (SW) 5,548 11.6 -10.8°
Maximum altitude 23:37:11 31° 164° (SSE) 4,068 10.6 -11.5°
Drops below altitude 10° 23:50:02 10° 109° (ESE) 5,563 11.5 -12.2°
Sets 23:54:55 0° 100° (E) 6,587 12.0 -12.4°
